Limon, CO

7:52 PM MDT on March 24, 2017 (GMT -0600)
Limon Municipal

Weather History for KLIC - September, 2012

Change the Weather History Date:

Saturday, September 1, 2012

  Actual Average Record
Temperature  
Mean Temperature 71 °F -  
Max Temperature 92 °F - 92 °F (2012)
Min Temperature 50 °F - 41 °F (2005)
Degree Days  
Heating Degree Days 0    
Month to date heating degree days 0  
Cooling Degree Days 6    
Month to date cooling degree days 6  
Growing Degree Days 20 (Base 50)    
Moisture  
Dew Point 32 °F    
Average Humidity 27    
Maximum Humidity 52    
Minimum Humidity 12    
Precipitation  
Precipitation 0.00 in - 1.13 in (2006)
Month to date precipitation 0.00  
Year to date precipitation 7.91  
Sea Level Pressure  
Sea Level Pressure 29.93 in    
Wind  
Wind Speed 8 mph (SSE)    
Max Wind Speed 23 mph    
Max Gust Speed 29 mph    
Visibility 10 miles    
Events      
T = Trace of Precipitation, MM = Missing Value Source: NWS Daily Summary

Daily Weather History Graph

Daily Weather History Graph

Search for Another Location

Airport or City:

Trip Planner

Search our weather history database for the weather conditions in past years. The results will help you decide how hot, cold, wet, or windy it might be!

Date:

Astronomy

Sep. 01, 2012 Rise Set
Actual Time 6:23 AM MDT 7:24 PM MDT
Civil Twilight 5:56 AM MDT 7:51 PM MDT
Nautical Twilight 5:23 AM MDT 8:24 PM MDT
Astronomical Twilight 4:49 AM MDT 8:58 PM MDT
Moon 7:43 PM MDT (9/1) 7:32 AM MDT (9/1)
Length of Visible Light 13h 55m
Length of Day
13h 00m
Full, 98% of the Moon is Illuminated
Sep 1
Full
Sep 8
Last Quarter
Sep 15
New
Sep 22
First Quarter
Sep 29
Full

Hourly Weather History & Observations

Time (MDT) Temp. Dew Point Humidity Pressure Visibility Wind Dir Wind Speed Gust Speed Precip Events Conditions
12:55 AM 55.0 °F 30.0 °F 38% 30.00 in 10.0 mi SE 4.6 mph - N/A   Clear
1:55 AM 55.0 °F 32.0 °F 42% 29.99 in 10.0 mi SE 4.6 mph - N/A   Clear
2:55 AM 60.1 °F 34.0 °F 38% 29.97 in 10.0 mi SSE 13.8 mph 19.6 mph N/A   Clear
3:55 AM 54.0 °F 33.1 °F 45% 29.97 in 10.0 mi SE 6.9 mph - N/A   Clear
4:55 AM 52.0 °F 33.1 °F 49% 29.98 in 10.0 mi SE 6.9 mph - N/A   Clear
5:55 AM 51.1 °F 33.1 °F 50% 29.99 in 10.0 mi SE 5.8 mph - N/A   Clear
6:55 AM 50.0 °F 33.1 °F 52% 30.00 in 10.0 mi Calm Calm - N/A   Clear
7:55 AM 60.1 °F 36.0 °F 41% 30.00 in 10.0 mi Calm Calm - N/A   Clear
8:55 AM 69.1 °F 35.1 °F 29% 29.98 in 10.0 mi SSE 10.4 mph - N/A   Clear
9:55 AM 75.9 °F 30.9 °F 19% 29.97 in 10.0 mi SSE 11.5 mph - N/A   Clear
10:55 AM 82.0 °F 30.9 °F 16% 29.96 in 10.0 mi SSE 15.0 mph 25.3 mph N/A   Clear
11:55 AM 87.1 °F 32.0 °F 14% 29.95 in 10.0 mi SSE 17.3 mph 21.9 mph N/A   Clear
12:55 PM 89.1 °F 30.9 °F 12% 29.92 in 10.0 mi South 16.1 mph 25.3 mph N/A   Clear
1:55 PM 91.0 °F 30.9 °F 12% 29.89 in 10.0 mi South 16.1 mph 21.9 mph N/A   Clear
2:55 PM 91.0 °F 30.9 °F 12% 29.85 in 10.0 mi SSE 18.4 mph 27.6 mph N/A   Clear
3:55 PM 91.0 °F 32.0 °F 12% 29.85 in 10.0 mi SE 12.7 mph 26.5 mph N/A   Clear
4:55 PM 91.0 °F 32.0 °F 12% 29.84 in 10.0 mi SE 12.7 mph 25.3 mph N/A   Clear
5:55 PM 89.1 °F 30.9 °F 12% 29.85 in 10.0 mi SSE 12.7 mph - N/A   Clear
6:55 PM 82.0 °F 32.0 °F 16% 29.87 in 10.0 mi SSE 6.9 mph - N/A   Clear
7:55 PM 80.1 °F 32.0 °F 17% 29.86 in 10.0 mi SE 9.2 mph - N/A   Clear
8:55 PM 75.9 °F 33.1 °F 21% 29.88 in 10.0 mi SW 6.9 mph - N/A   Clear
10:55 PM 62.1 °F 32.0 °F 32% 29.88 in 10.0 mi North 3.5 mph - N/A   Clear
11:55 PM 55.9 °F 32.0 °F 40% 29.87 in 10.0 mi North 3.5 mph - N/A   Clear